CCA7631 ZHCC-ZLYL

Flight info

Callsign CCA7631
Flight time N/A
Altitude 17700
Route NOPIN B208 TYN W87 GODON B215 APOGO
Aircraft A21N/M-SDE1FGHIJ1RWXYZ/LB1

Departure

Time 2026-05-07 07:29
Airport Zhengzhou Xinzheng International Airport (ZHCC)

Arrival

Time N/A
Airport Yulin Yuyang Airport (ZLYL)
Time Latitude Longitude Altitude Speed Heading
2026-05-07 07:18 34.53072 113.85241 510 ft 2 kts 112°
2026-05-07 07:18 34.53080 113.85218 510 ft 4 kts 112°
2026-05-07 07:19 34.53086 113.85194 510 ft 4 kts 81°
2026-05-07 07:19 34.53074 113.85171 510 ft 4 kts 32°
2026-05-07 07:19 34.53051 113.85157 510 ft 3 kts 22°
2026-05-07 07:19 34.53050 113.85157 510 ft 0 kts 22°
2026-05-07 07:22 34.53054 113.85159 510 ft 2 kts 22°
2026-05-07 07:22 34.53080 113.85172 510 ft 6 kts 21°
2026-05-07 07:22 34.53129 113.85196 510 ft 9 kts 22°
2026-05-07 07:22 34.53202 113.85232 510 ft 13 kts 22°
2026-05-07 07:23 34.53252 113.85303 510 ft 13 kts 98°
2026-05-07 07:23 34.53213 113.85421 510 ft 17 kts 112°
2026-05-07 07:23 34.53172 113.85542 510 ft 15 kts 112°
2026-05-07 07:23 34.53133 113.85656 510 ft 13 kts 112°
2026-05-07 07:24 34.53094 113.85769 510 ft 16 kts 114°
2026-05-07 07:24 34.53047 113.85902 510 ft 18 kts 112°
2026-05-07 07:24 34.53001 113.86043 510 ft 18 kts 111°
2026-05-07 07:24 34.52950 113.86194 511 ft 21 kts 112°
2026-05-07 07:25 34.52874 113.86420 509 ft 13 kts 113°
2026-05-07 07:25 34.52836 113.86531 509 ft 16 kts 112°
2026-05-07 07:25 34.52791 113.86662 509 ft 18 kts 112°
2026-05-07 07:26 34.52741 113.86811 509 ft 20 kts 112°
2026-05-07 07:26 34.52691 113.86959 509 ft 13 kts 112°
2026-05-07 07:26 34.52653 113.87067 509 ft 15 kts 112°
2026-05-07 07:26 34.52610 113.87195 509 ft 18 kts 112°
2026-05-07 07:27 34.52580 113.87281 510 ft 9 kts 111°
2026-05-07 07:27 34.52610 113.87352 509 ft 11 kts 35°
2026-05-07 07:27 34.52686 113.87397 507 ft 13 kts 21°
2026-05-07 07:27 34.52770 113.87428 502 ft 13 kts 352°
2026-05-07 07:28 34.52836 113.87345 500 ft 15 kts 293°
2026-05-07 07:28 34.52901 113.87161 499 ft 48 kts 293°
2026-05-07 07:28 34.53117 113.86522 497 ft 113 kts 292°
2026-05-07 07:28 34.53489 113.85433 505 ft 163 kts 294°
2026-05-07 07:29 34.53929 113.84128 913 ft 168 kts 295°
2026-05-07 07:29 34.54322 113.82764 1512 ft 172 kts 293°
2026-05-07 07:29 34.54741 113.81403 2111 ft 173 kts 298°
2026-05-07 07:29 34.55204 113.80016 2574 ft 186 kts 296°
2026-05-07 07:30 34.55724 113.78516 3093 ft 201 kts 297°
2026-05-07 07:30 34.56290 113.76883 3756 ft 218 kts 297°
2026-05-07 07:30 34.56905 113.75101 4412 ft 236 kts 298°
2026-05-07 07:30 34.57558 113.73238 5118 ft 249 kts 297°
2026-05-07 07:31 34.58226 113.71315 6190 ft 245 kts 296°
2026-05-07 07:31 34.58879 113.69423 7270 ft 241 kts 296°
2026-05-07 07:31 34.59550 113.67570 8263 ft 240 kts 302°
2026-05-07 07:31 34.60568 113.65994 9126 ft 238 kts 323°
2026-05-07 07:32 34.62014 113.65047 10055 ft 238 kts 345°
2026-05-07 07:32 34.63668 113.64956 10889 ft 244 kts
2026-05-07 07:32 34.65319 113.65612 11657 ft 255 kts 18°
2026-05-07 07:32 34.66960 113.66489 12412 ft 261 kts 18°
2026-05-07 07:33 34.68652 113.67356 13164 ft 265 kts 14°
2026-05-07 07:33 34.70467 113.68021 13617 ft 283 kts
2026-05-07 07:33 34.72445 113.68648 13933 ft 305 kts
2026-05-07 07:33 34.74580 113.69313 14195 ft 328 kts
2026-05-07 07:34 34.76857 113.70016 14448 ft 348 kts
2026-05-07 07:34 34.79274 113.70763 14689 ft 368 kts
2026-05-07 07:34 34.81786 113.71542 15052 ft 380 kts 10°
2026-05-07 07:34 34.84374 113.72254 15626 ft 382 kts
2026-05-07 07:35 34.87013 113.72324 16210 ft 379 kts 349°
2026-05-07 07:35 34.88717 113.71916 16594 ft 377 kts 340°
2026-05-07 07:35 34.91204 113.70870 17171 ft 380 kts 336°
2026-05-07 07:35 34.94540 113.69337 17754 ft 385 kts 336°
2026-05-07 07:36 34.96200 113.68579 17842 ft 383 kts 336°
2026-05-07 07:36 34.98689 113.67457 17882 ft 380 kts 336°
2026-05-07 07:36 35.01173 113.66354 17878 ft 380 kts 336°
2026-05-07 07:36 35.03657 113.65257 17870 ft 379 kts 336°
2026-05-07 07:37 35.06162 113.64149 17872 ft 391 kts 336°
2026-05-07 07:37 35.09656 113.62605 17902 ft 413 kts 336°
2026-05-07 07:37 35.11487 113.61798 17884 ft 415 kts 336°
2026-05-07 07:37 35.14201 113.60600 17874 ft 415 kts 336°
2026-05-07 07:38 35.17796 113.59015 17872 ft 415 kts 336°
2026-05-07 07:38 35.19634 113.58204 17869 ft 415 kts 336°
2026-05-07 07:38 35.22349 113.57004 17868 ft 415 kts 336°
2026-05-07 07:38 35.25064 113.55796 17867 ft 415 kts 336°
2026-05-07 07:39 35.27781 113.54590 17867 ft 415 kts 336°
2026-05-07 07:39 35.30459 113.53403 17867 ft 415 kts 336°
2026-05-07 07:39 35.33169 113.52197 17866 ft 415 kts 336°
2026-05-07 07:39 35.35895 113.50986 17896 ft 404 kts 336°
2026-05-07 07:40 35.38507 113.49831 17878 ft 405 kts 336°
2026-05-07 07:40 35.41153 113.48654 17871 ft 405 kts 336°
2026-05-07 07:40 35.43806 113.47471 17867 ft 405 kts 336°
2026-05-07 07:40 35.46498 113.46430 17870 ft 406 kts 339°
2026-05-07 07:41 35.49223 113.45446 17869 ft 407 kts 339°
2026-05-07 07:41 35.51930 113.44471 17873 ft 406 kts 339°
2026-05-07 07:41 35.54645 113.43492 17884 ft 407 kts 339°
2026-05-07 07:41 35.57350 113.42521 17884 ft 406 kts 339°
2026-05-07 07:42 35.60046 113.41544 17882 ft 403 kts 340°
2026-05-07 07:42 35.62743 113.40575 17872 ft 405 kts 340°
2026-05-07 07:42 35.65449 113.39611 17867 ft 404 kts 340°
2026-05-07 07:42 35.68147 113.38647 17860 ft 403 kts 340°
2026-05-07 07:43 35.70839 113.37677 17851 ft 403 kts 340°
2026-05-07 07:43 35.73524 113.36705 17857 ft 404 kts 340°
2026-05-07 07:43 35.76218 113.35723 17861 ft 404 kts 340°
2026-05-07 07:43 35.78914 113.34745 17870 ft 404 kts 340°
2026-05-07 07:44 35.81609 113.33770 17869 ft 404 kts 340°
2026-05-07 07:44 35.84304 113.32792 17878 ft 404 kts 340°
2026-05-07 07:44 35.87004 113.31817 17878 ft 405 kts 340°
2026-05-07 07:44 35.89713 113.30836 17874 ft 405 kts 340°
2026-05-07 07:45 35.92414 113.29851 17871 ft 405 kts 340°
2026-05-07 07:45 35.95115 113.28870 17872 ft 404 kts 340°
2026-05-07 07:45 35.97816 113.27882 17869 ft 404 kts 340°
2026-05-07 07:45 36.00507 113.26904 17867 ft 404 kts 340°
2026-05-07 07:46 36.03213 113.25916 17864 ft 404 kts 340°
2026-05-07 07:46 36.05903 113.24936 17867 ft 403 kts 340°
2026-05-07 07:46 36.08600 113.23952 17869 ft 405 kts 340°
2026-05-07 07:46 36.11292 113.22967 17870 ft 404 kts 340°
2026-05-07 07:47 36.13983 113.21983 17853 ft 402 kts 340°
2026-05-07 07:47 36.16656 113.21005 17850 ft 399 kts 340°
2026-05-07 07:47 36.19308 113.20035 17855 ft 400 kts 340°
2026-05-07 07:47 36.21997 113.19052 17862 ft 403 kts 340°
2026-05-07 07:48 36.24686 113.18067 17850 ft 403 kts 340°
2026-05-07 07:48 36.27376 113.17082 17855 ft 403 kts 340°
2026-05-07 07:48 36.30063 113.16096 17857 ft 403 kts 340°
2026-05-07 07:48 36.32717 113.15121 17858 ft 403 kts 340°
2026-05-07 07:49 36.35400 113.14133 17878 ft 400 kts 340°
2026-05-07 07:49 36.38058 113.13155 17867 ft 398 kts 340°
2026-05-07 07:49 36.40714 113.12176 17862 ft 398 kts 340°
2026-05-07 07:49 36.43372 113.11194 17865 ft 398 kts 340°
2026-05-07 07:50 36.46020 113.10219 17837 ft 393 kts 340°
2026-05-07 07:50 36.48665 113.09243 17851 ft 400 kts 340°
2026-05-07 07:50 36.51343 113.08256 17856 ft 401 kts 340°
2026-05-07 07:50 36.54013 113.07269 17858 ft 401 kts 340°
2026-05-07 07:51 36.56689 113.06278 17859 ft 401 kts 340°
2026-05-07 07:51 36.59366 113.05290 17859 ft 401 kts 340°
2026-05-07 07:51 36.62043 113.04297 17857 ft 401 kts 340°
2026-05-07 07:51 36.64717 113.03303 17858 ft 401 kts 340°
2026-05-07 07:52 36.67392 113.02312 17856 ft 401 kts 340°
2026-05-07 07:52 36.70066 113.01321 17856 ft 401 kts 340°
2026-05-07 07:52 36.72743 113.00328 17853 ft 401 kts 340°
2026-05-07 07:52 36.75415 112.99339 17860 ft 400 kts 340°
2026-05-07 07:53 36.78079 112.98341 17861 ft 400 kts 340°
2026-05-07 07:53 36.80748 112.97349 17863 ft 400 kts 340°
2026-05-07 07:53 36.83405 112.96361 17867 ft 397 kts 340°
2026-05-07 07:53 36.86036 112.95380 17867 ft 390 kts 340°
2026-05-07 07:54 36.88658 112.94402 17864 ft 397 kts 340°
2026-05-07 07:54 36.91308 112.93410 17864 ft 397 kts 340°
2026-05-07 07:54 36.93955 112.92420 17870 ft 398 kts 340°
2026-05-07 07:54 36.96604 112.91433 17872 ft 398 kts 340°
2026-05-07 07:55 36.99261 112.90438 17879 ft 398 kts 341°
2026-05-07 07:55 37.01909 112.89449 17878 ft 398 kts 341°
2026-05-07 07:55 37.04561 112.88456 17879 ft 398 kts 340°
2026-05-07 07:55 37.07212 112.87463 17891 ft 397 kts 340°
2026-05-07 07:56 37.09840 112.86477 17884 ft 392 kts 340°
2026-05-07 07:56 37.12452 112.85496 17880 ft 395 kts 340°
2026-05-07 07:56 37.15080 112.84508 17873 ft 396 kts 340°
2026-05-07 07:56 37.17713 112.83516 17875 ft 396 kts 340°
2026-05-07 07:57 37.20361 112.82516 17868 ft 396 kts 340°
2026-05-07 07:57 37.23003 112.81519 17877 ft 397 kts 340°
2026-05-07 07:57 37.25639 112.80522 17875 ft 397 kts 340°
2026-05-07 07:57 37.28284 112.79522 17874 ft 397 kts 340°
2026-05-07 07:58 37.30932 112.78522 17868 ft 397 kts 340°
2026-05-07 07:58 37.33573 112.77528 17855 ft 396 kts 341°
2026-05-07 07:58 37.36197 112.76537 17859 ft 389 kts 341°
2026-05-07 07:58 37.38822 112.75543 17869 ft 395 kts 341°
2026-05-07 07:59 37.41443 112.74550 17875 ft 395 kts 341°
2026-05-07 07:59 37.44074 112.73550 17881 ft 395 kts 341°
2026-05-07 07:59 37.46708 112.72550 17877 ft 395 kts 341°
2026-05-07 07:59 37.49350 112.71551 17872 ft 395 kts 341°
2026-05-07 08:00 37.51969 112.70558 17876 ft 395 kts 341°
2026-05-07 08:00 37.54614 112.69551 17874 ft 395 kts 341°
2026-05-07 08:00 37.57207 112.68561 17885 ft 393 kts 341°
2026-05-07 08:00 37.59850 112.67554 17868 ft 394 kts 341°
2026-05-07 08:01 37.62449 112.66573 17869 ft 393 kts 341°
2026-05-07 08:01 37.65106 112.65559 17872 ft 394 kts 341°
2026-05-07 08:01 37.67688 112.64568 17873 ft 394 kts 341°
2026-05-07 08:01 37.70284 112.63499 17860 ft 393 kts 336°
2026-05-07 08:02 37.72639 112.61780 17855 ft 391 kts 322°
2026-05-07 08:02 37.74520 112.59280 17858 ft 394 kts 308°
2026-05-07 08:02 37.75779 112.56210 17867 ft 401 kts 293°
2026-05-07 08:02 37.76402 112.52736 17889 ft 408 kts 282°
2026-05-07 08:03 37.76664 112.49161 17878 ft 409 kts 280°
2026-05-07 08:03 37.76941 112.45592 17852 ft 408 kts 281°
2026-05-07 08:03 37.77253 112.42040 17858 ft 407 kts 282°
2026-05-07 08:03 37.77588 112.38476 17870 ft 408 kts 282°
2026-05-07 08:04 37.77935 112.34891 17871 ft 410 kts 282°
2026-05-07 08:04 37.78282 112.31309 17877 ft 409 kts 282°
2026-05-07 08:04 37.78626 112.27748 17869 ft 407 kts 282°
2026-05-07 08:04 37.78741 112.26547 17874 ft 406 kts 282°